Location: Oroua River
(40.4333°S, 175.4333°E)
Time: 01:04:12
(UTC+00:00)

Cosmos 44 - Pass Details

Date: 03 February 2023
Orbit: 582 x 777 km, 65.1° (Epoch: 31 March)

Event Time Altitude Azimuth Distance (km) Brightness Sun altitude
Exits shadow 16:09:53 13° 343° (NNW) 2,098 5.3 -13.9°
Maximum altitude 16:14:34 64° 62° (ENE) 860 3.9 -13.2°
Drops below altitude 10° 16:19:49 10° 142° (SE) 2,298 7.3 -12.4°
Sets 16:22:12 0° 145° (SE) 3,204 8.2 -12.0°
